| time (UTC) | temp C | wind direction | speed KPH | gust KPH | rain 1hr cm | rain 24hr cm | rain mn cm | humidity % | barometer mb |
| 20260507223332 | 16 | 217 | 1.6 | 3.2 | 0.00 | 0.03 | 0.03 | 27 | 1005.6 |
| 20260507222829 | 16 | 311 | 0.0 | 0.0 | 0.00 | 0.03 | 0.03 | 28 | 1005.7 |
| 20260507222325 | 16 | 30 | 1.6 | 3.2 | 0.00 | 0.03 | 0.03 | 28 | 1005.6 |
| 20260507221823 | 16 | 279 | 0.0 | 0.0 | 0.00 | 0.03 | 0.03 | 28 | 1005.6 |
| 20260507221319 | 16 | 265 | 0.0 | 1.6 | 0.00 | 0.03 | 0.03 | 27 | 1005.6 |
| 20260507220815 | 16 | 280 | 0.0 | 0.0 | 0.00 | 0.03 | 0.03 | 27 | 1005.5 |
| 20260507220314 | 16 | 221 | 3.2 | 4.8 | 0.00 | 0.03 | 0.03 | 27 | 1005.6 |
| 20260507215809 | 16 | 264 | 1.6 | 3.2 | 0.00 | 0.03 | 0.03 | 26 | 1005.6 |
| 20260507215307 | 16 | 53 | 1.6 | 4.8 | 0.00 | 0.03 | 0.03 | 27 | 1005.5 |
| 20260507214804 | 16 | 288 | 0.0 | 0.0 | 0.00 | 0.03 | 0.03 | 27 | 1005.3 |
| 20260507214301 | 17 | 298 | 1.6 | 4.8 | 0.00 | 0.03 | 0.03 | 28 | 1005.5 |
| 20260507213756 | 17 | 49 | 4.8 | 9.7 | 0.00 | 0.03 | 0.03 | 27 | 1005.4 |
| 20260507213254 | 17 | 266 | 0.0 | 0.0 | 0.00 | 0.03 | 0.03 | 27 | 1005.3 |
| 20260507212751 | 17 | 290 | 0.0 | 0.0 | 0.00 | 0.03 | 0.03 | 26 | 1005.3 |
| 20260507212247 | 17 | 298 | 1.6 | 1.6 | 0.00 | 0.03 | 0.03 | 26 | 1005.2 |
| 20260507211743 | 18 | 301 | 3.2 | 3.2 | 0.00 | 0.03 | 0.03 | 25 | 1005.3 |
| 20260507211240 | 17 | 256 | 1.6 | 3.2 | 0.00 | 0.03 | 0.03 | 25 | 1005.4 |
| 20260507210737 | 17 | 188 | 1.6 | 4.8 | 0.00 | 0.03 | 0.03 | 26 | 1005.4 |
| 20260507210234 | 18 | 308 | 0.0 | 0.0 | 0.00 | 0.03 | 0.03 | 25 | 1005.5 |
| 20260507205730 | 18 | 299 | 0.0 | 0.0 | 0.00 | 0.03 | 0.03 | 25 | 1005.5 |
| 20260507205226 | 18 | 282 | 0.0 | 0.0 | 0.00 | 0.03 | 0.03 | 25 | 1005.5 |
| 20260507204723 | 18 | 285 | 0.0 | 0.0 | 0.00 | 0.03 | 0.03 | 25 | 1005.2 |
| 20260507204221 | 17 | 281 | 0.0 | 1.6 | 0.00 | 0.03 | 0.03 | 26 | 1005.3 |
| 20260507203718 | 17 | 319 | 0.0 | 1.6 | 0.00 | 0.03 | 0.03 | 24 | 1005.4 |
| 20260507203216 | 17 | 224 | 1.6 | 4.8 | 0.00 | 0.03 | 0.03 | 24 | 1005.4 |
| 20260507202711 | 18 | 32 | 3.2 | 4.8 | 0.00 | 0.03 | 0.03 | 24 | 1005.4 |
| 20260507202208 | 17 | 331 | 1.6 | 1.6 | 0.00 | 0.03 | 0.03 | 26 | 1005.5 |
| 20260507201702 | 18 | 213 | 1.6 | 3.2 | 0.00 | 0.03 | 0.03 | 24 | 1005.4 |
| 20260507201200 | 18 | 236 | 4.8 | 9.7 | 0.00 | 0.03 | 0.03 | 25 | 1005.2 |
| 20260507200656 | 18 | 262 | 4.8 | 4.8 | 0.00 | 0.03 | 0.03 | 24 | 1005.2 |
| 20260507200152 | 17 | 29 | 1.6 | 3.2 | 0.00 | 0.03 | 0.03 | 26 | 1005.4 |
| 20260507195649 | 17 | 325 | 1.6 | 3.2 | 0.00 | 0.03 | 0.03 | 26 | 1005.6 |
| 20260507195146 | 19 | 286 | 0.0 | 1.6 | 0.00 | 0.03 | 0.03 | 26 | 1005.5 |
| 20260507194643 | 19 | 287 | 1.6 | 3.2 | 0.00 | 0.03 | 0.03 | 26 | 1005.5 |
| 20260507194138 | 18 | 271 | 0.0 | 0.0 | 0.00 | 0.03 | 0.03 | 27 | 1005.3 |
| 20260507193635 | 18 | 288 | 0.0 | 1.6 | 0.00 | 0.03 | 0.03 | 26 | 1005.5 |
| 20260507193133 | 19 | 274 | 0.0 | 0.0 | 0.00 | 0.03 | 0.03 | 26 | 1005.7 |
| 20260507192628 | 19 | 239 | 0.0 | 0.0 | 0.00 | 0.03 | 0.03 | 27 | 1005.4 |
| 20260507192126 | 18 | 330 | 3.2 | 3.2 | 0.00 | 0.03 | 0.03 | 28 | 1005.6 |
| 20260507191621 | 18 | 75 | 3.2 | 4.8 | 0.00 | 0.03 | 0.03 | 26 | 1005.8 |
| 20260507191118 | 18 | 296 | 0.0 | 0.0 | 0.00 | 0.03 | 0.03 | 28 | 1005.7 |
| 20260507190615 | 19 | 308 | 0.0 | 0.0 | 0.00 | 0.03 | 0.03 | 28 | 1005.9 |
| 20260507190114 | 18 | 279 | 0.0 | 0.0 | 0.00 | 0.03 | 0.03 | 27 | 1005.8 |
| 20260507185612 | 18 | 235 | 3.2 | 4.8 | 0.00 | 0.03 | 0.03 | 26 | 1005.8 |
| 20260507185108 | 18 | 195 | 4.8 | 8.0 | 0.00 | 0.03 | 0.03 | 29 | 1005.8 |
| 20260507184607 | 18 | 279 | 0.0 | 3.2 | 0.00 | 0.03 | 0.03 | 28 | 1005.9 |
| 20260507184104 | 18 | 275 | 0.0 | 0.0 | 0.00 | 0.03 | 0.03 | 29 | 1005.9 |
| 20260507183600 | 18 | 279 | 1.6 | 3.2 | 0.00 | 0.03 | 0.03 | 28 | 1005.9 |
| 20260507183057 | 18 | 242 | 1.6 | 1.6 | 0.00 | 0.03 | 0.03 | 27 | 1005.6 |
| 20260507182553 | 18 | 256 | 0.0 | 1.6 | 0.00 | 0.03 | 0.03 | 29 | 1005.8 |
| 20260507182049 | 18 | 261 | 4.8 | 8.0 | 0.00 | 0.03 | 0.03 | 28 | 1005.7 |
| 20260507181547 | 18 | 298 | 0.0 | 0.0 | 0.00 | 0.03 | 0.03 | 28 | 1005.9 |
| 20260507181043 | 18 | 258 | 4.8 | 8.0 | 0.00 | 0.03 | 0.03 | 27 | 1006.1 |
| 20260507180539 | 18 | 297 | 0.0 | 1.6 | 0.00 | 0.03 | 0.03 | 28 | 1005.9 |
| 20260507180036 | 18 | 269 | 0.0 | 0.0 | 0.00 | 0.03 | 0.03 | 28 | 1006.1 |
| 20260507175532 | 18 | 254 | 3.2 | 4.8 | 0.00 | 0.03 | 0.03 | 29 | 1005.8 |
| 20260507175030 | 18 | 240 | 0.0 | 0.0 | 0.00 | 0.03 | 0.03 | 30 | 1006.0 |
| 20260507174527 | 18 | 280 | 0.0 | 0.0 | 0.00 | 0.03 | 0.03 | 30 | 1006.0 |
| 20260507174025 | 17 | 298 | 0.0 | 0.0 | 0.00 | 0.03 | 0.03 | 29 | 1005.9 |
| 20260507173521 | 18 | 224 | 4.8 | 4.8 | 0.00 | 0.03 | 0.03 | 30 | 1006.0 |
| 20260507173019 | 17 | 232 | 3.2 | 3.2 | 0.00 | 0.03 | 0.03 | 31 | 1005.9 |
| 20260507172514 | 18 | 261 | 3.2 | 4.8 | 0.00 | 0.03 | 0.03 | 28 | 1006.1 |
| 20260507172011 | 18 | 80 | 6.4 | 11.3 | 0.00 | 0.03 | 0.03 | 31 | 1006.2 |
| 20260507171507 | 17 | 89 | 0.0 | 1.6 | 0.00 | 0.03 | 0.03 | 33 | 1006.4 |
| 20260507171005 | 17 | 266 | 0.0 | 0.0 | 0.00 | 0.03 | 0.03 | 34 | 1006.3 |
| 20260507170501 | 18 | 247 | 0.0 | 3.2 | 0.00 | 0.03 | 0.03 | 35 | 1006.3 |
| 20260507165957 | 16 | 269 | 0.0 | 1.6 | 0.00 | 0.03 | 0.03 | 40 | 1006.3 |
| 20260507165453 | 16 | 303 | 0.0 | 1.6 | 0.00 | 0.03 | 0.03 | 41 | 1006.3 |
| 20260507164949 | 16 | 312 | 0.0 | 0.0 | 0.00 | 0.03 | 0.03 | 44 | 1006.4 |
| 20260507164447 | 17 | 212 | 1.6 | 4.8 | 0.00 | 0.03 | 0.03 | 42 | 1006.5 |
| 20260507163943 | 17 | 274 | 0.0 | 0.0 | 0.00 | 0.03 | 0.03 | 43 | 1006.6 |
| 20260507163441 | 17 | 263 | 0.0 | 0.0 | 0.00 | 0.03 | 0.03 | 43 | 1006.6 |
| 20260507162938 | 16 | 319 | 0.0 | 1.6 | 0.00 | 0.03 | 0.03 | 47 | 1006.7 |
| 20260507162433 | 17 | 234 | 0.0 | 0.0 | 0.00 | 0.03 | 0.03 | 45 | 1006.9 |
| 20260507161931 | 17 | 290 | 0.0 | 0.0 | 0.00 | 0.03 | 0.03 | 43 | 1006.8 |
| 20260507161426 | 17 | 285 | 0.0 | 0.0 | 0.00 | 0.03 | 0.03 | 44 | 1006.8 |
| 20260507160924 | 16 | 279 | 0.0 | 0.0 | 0.00 | 0.03 | 0.03 | 45 | 1006.9 |
| 20260507160419 | 17 | 289 | 0.0 | 0.0 | 0.00 | 0.03 | 0.03 | 44 | 1006.7 |
| 20260507155915 | 16 | 258 | 1.6 | 3.2 | 0.00 | 0.03 | 0.03 | 42 | 1006.9 |
| 20260507155411 | 16 | 244 | 3.2 | 3.2 | 0.00 | 0.03 | 0.03 | 43 | 1007.0 |
| 20260507154909 | 15 | 301 | 0.0 | 0.0 | 0.00 | 0.03 | 0.03 | 45 | 1006.9 |
| 20260507154405 | 16 | 301 | 0.0 | 1.6 | 0.00 | 0.03 | 0.03 | 44 | 1007.0 |
| 20260507153903 | 17 | 274 | 0.0 | 0.0 | 0.00 | 0.03 | 0.03 | 42 | 1006.9 |
| 20260507153359 | 17 | 260 | 0.0 | 1.6 | 0.00 | 0.03 | 0.03 | 41 | 1007.2 |
| 20260507152855 | 16 | 40 | 3.2 | 4.8 | 0.00 | 0.03 | 0.03 | 41 | 1007.1 |
| 20260507152727 | 17 | 331 | 3.2 | 3.2 | 0.00 | 0.03 | 0.03 | 40 | 1007.4 |
| 20260507152352 | 17 | 303 | 0.0 | 0.0 | 0.00 | 0.03 | 0.03 | 41 | 1007.4 |
| 20260507151848 | 17 | 331 | 3.2 | 3.2 | 0.00 | 0.03 | 0.03 | 40 | 1007.4 |
| 20260507151344 | 17 | 251 | 0.0 | 1.6 | 0.00 | 0.03 | 0.03 | 42 | 1007.3 |
| 20260507150842 | 17 | 260 | 1.6 | 3.2 | 0.00 | 0.03 | 0.03 | 41 | 1007.6 |
| 20260507150338 | 16 | 245 | 1.6 | 3.2 | 0.00 | 0.03 | 0.03 | 43 | 1007.5 |
| 20260507145834 | 16 | 327 | 3.2 | 3.2 | 0.00 | 0.03 | 0.03 | 42 | 1007.4 |
| 20260507145331 | 16 | 231 | 1.6 | 1.6 | 0.00 | 0.03 | 0.03 | 43 | 1007.7 |
| 20260507144828 | 16 | 263 | 0.0 | 1.6 | 0.00 | 0.03 | 0.03 | 43 | 1007.7 |
| 20260507144325 | 16 | 294 | 0.0 | 0.0 | 0.00 | 0.03 | 0.03 | 45 | 1007.7 |
| 20260507143822 | 15 | 267 | 0.0 | 0.0 | 0.00 | 0.03 | 0.03 | 48 | 1007.6 |
| 20260507143319 | 15 | 281 | 0.0 | 0.0 | 0.00 | 0.03 | 0.03 | 45 | 1007.4 |
| 20260507142815 | 15 | 297 | 0.0 | 0.0 | 0.00 | 0.03 | 0.03 | 47 | 1007.9 |
| 20260507142312 | 16 | 323 | 1.6 | 3.2 | 0.00 | 0.03 | 0.03 | 48 | 1007.6 |
| 20260507141808 | 15 | 250 | 1.6 | 3.2 | 0.00 | 0.03 | 0.03 | 48 | 1007.6 |
| 20260507141305 | 15 | 252 | 0.0 | 1.6 | 0.00 | 0.03 | 0.03 | 48 | 1007.5 |
| 20260507140801 | 15 | 269 | 0.0 | 1.6 | 0.00 | 0.03 | 0.03 | 49 | 1007.4 |
| 20260507140259 | 14 | 227 | 3.2 | 3.2 | 0.00 | 0.03 | 0.03 | 48 | 1007.8 |
| 20260507135756 | 13 | 309 | 0.0 | 0.0 | 0.00 | 0.03 | 0.03 | 53 | 1007.5 |
| 20260507135253 | 13 | 269 | 1.6 | 1.6 | 0.00 | 0.03 | 0.03 | 52 | 1007.6 |
| 20260507134749 | 13 | 311 | 0.0 | 0.0 | 0.00 | 0.03 | 0.03 | 56 | 1007.7 |
| 20260507134246 | 13 | 315 | 0.0 | 1.6 | 0.00 | 0.03 | 0.03 | 56 | 1007.6 |
| 20260507133742 | 13 | 300 | 0.0 | 0.0 | 0.00 | 0.03 | 0.03 | 59 | 1007.8 |
| 20260507133238 | 13 | 291 | 0.0 | 0.0 | 0.00 | 0.03 | 0.03 | 58 | 1007.7 |
| 20260507132736 | 12 | 274 | 0.0 | 0.0 | 0.00 | 0.03 | 0.03 | 58 | 1007.9 |
| 20260507132233 | 12 | 271 | 0.0 | 1.6 | 0.00 | 0.03 | 0.03 | 58 | 1008.3 |
| 20260507131729 | 12 | 264 | 0.0 | 0.0 | 0.00 | 0.03 | 0.03 | 58 | 1008.1 |
| 20260507131227 | 12 | 248 | 1.6 | 3.2 | 0.00 | 0.03 | 0.03 | 59 | 1008.2 |
| 20260507130723 | 12 | 325 | 1.6 | 1.6 | 0.00 | 0.03 | 0.03 | 59 | 1008.3 |
| 20260507130221 | 12 | 268 | 0.0 | 0.0 | 0.00 | 0.03 | 0.03 | 60 | 1008.1 |
| 20260507125720 | 12 | 267 | 0.0 | 0.0 | 0.00 | 0.03 | 0.03 | 60 | 1008.2 |
| 20260507125217 | 12 | 250 | 3.2 | 4.8 | 0.00 | 0.03 | 0.03 | 61 | 1008.3 |
| 20260507124713 | 11 | 268 | 0.0 | 0.0 | 0.00 | 0.03 | 0.03 | 62 | 1008.2 |
| 20260507124210 | 11 | 266 | 0.0 | 0.0 | 0.00 | 0.03 | 0.03 | 63 | 1008.1 |
| 20260507123709 | 11 | 266 | 0.0 | 0.0 | 0.00 | 0.03 | 0.03 | 64 | 1008.4 |
| 20260507123206 | 11 | 281 | 1.6 | 3.2 | 0.00 | 0.03 | 0.03 | 66 | 1008.2 |
| 20260507122700 | 11 | 312 | 1.6 | 3.2 | 0.00 | 0.03 | 0.03 | 66 | 1008.3 |
| 20260507122157 | 11 | 289 | 0.0 | 0.0 | 0.00 | 0.03 | 0.03 | 66 | 1008.1 |
| 20260507121653 | 10 | 296 | 0.0 | 0.0 | 0.00 | 0.03 | 0.03 | 69 | 1008.6 |
| 20260507121149 | 10 | 304 | 0.0 | 0.0 | 0.00 | 0.03 | 0.03 | 70 | 1008.3 |
| 20260507120645 | 10 | 336 | 0.0 | 1.6 | 0.00 | 0.03 | 0.03 | 69 | 1008.5 |
| 20260507120142 | 10 | 287 | 1.6 | 3.2 | 0.00 | 0.03 | 0.03 | 71 | 1008.2 |
| 20260507115638 | 10 | 273 | 0.0 | 0.0 | 0.00 | 0.03 | 0.03 | 71 | 1008.3 |
| 20260507115134 | 10 | 267 | 0.0 | 0.0 | 0.00 | 0.03 | 0.03 | 70 | 1008.4 |
| 20260507114630 | 10 | 279 | 0.0 | 0.0 | 0.00 | 0.03 | 0.03 | 71 | 1008.3 |
| 20260507114127 | 10 | 253 | 0.0 | 3.2 | 0.00 | 0.03 | 0.03 | 73 | 1008.3 |
| 20260507113625 | 10 | 226 | 0.0 | 0.0 | 0.00 | 0.03 | 0.03 | 73 | 1008.3 |
| 20260507113122 | 10 | 270 | 0.0 | 0.0 | 0.00 | 0.03 | 0.03 | 74 | 1008.0 |
| 20260507112620 | 9 | 225 | 1.6 | 3.2 | 0.00 | 0.03 | 0.03 | 74 | 1008.0 |
| 20260507112116 | 9 | 283 | 0.0 | 0.0 | 0.00 | 0.03 | 0.03 | 75 | 1008.0 |
| 20260507111613 | 9 | 310 | 0.0 | 0.0 | 0.00 | 0.03 | 0.03 | 75 | 1008.1 |
| 20260507111110 | 9 | 269 | 0.0 | 1.6 | 0.00 | 0.03 | 0.03 | 75 | 1008.3 |
| 20260507110606 | 9 | 275 | 0.0 | 0.0 | 0.00 | 0.03 | 0.03 | 77 | 1008.3 |
| 20260507105600 | 9 | 284 | 0.0 | 0.0 | 0.00 | 0.03 | 0.03 | 77 | 1008.3 |
| 20260507105055 | 9 | 262 | 0.0 | 0.0 | 0.00 | 0.03 | 0.03 | 77 | 1008.0 |
| 20260507104553 | 9 | 254 | 1.6 | 3.2 | 0.00 | 0.03 | 0.03 | 77 | 1007.7 |
| 20260507104049 | 9 | 277 | 0.0 | 0.0 | 0.00 | 0.03 | 0.03 | 78 | 1007.7 |
| 20260507103546 | 9 | 253 | 0.0 | 1.6 | 0.00 | 0.03 | 0.03 | 78 | 1007.9 |
| 20260507103043 | 9 | 270 | 1.6 | 3.2 | 0.00 | 0.03 | 0.03 | 78 | 1007.8 |
| 20260507102539 | 9 | 283 | 0.0 | 0.0 | 0.00 | 0.03 | 0.03 | 78 | 1007.7 |
| 20260507102035 | 9 | 285 | 0.0 | 0.0 | 0.00 | 0.03 | 0.03 | 78 | 1007.9 |
| 20260507101531 | 9 | 267 | 0.0 | 0.0 | 0.00 | 0.03 | 0.03 | 78 | 1008.1 |
| 20260507101027 | 9 | 269 | 3.2 | 3.2 | 0.00 | 0.03 | 0.03 | 77 | 1007.5 |
| 20260507100525 | 9 | 270 | 1.6 | 1.6 | 0.00 | 0.03 | 0.03 | 78 | 1007.5 |
| 20260507100023 | 9 | 347 | 1.6 | 3.2 | 0.00 | 0.03 | 0.03 | 78 | 1007.8 |
| 20260507095520 | 9 | 289 | 1.6 | 1.6 | 0.00 | 0.03 | 0.03 | 79 | 1008.1 |
| 20260507095017 | 9 | 282 | 0.0 | 0.0 | 0.00 | 0.03 | 0.03 | 78 | 1007.5 |
| 20260507094513 | 9 | 271 | 1.6 | 3.2 | 0.00 | 0.03 | 0.03 | 79 | 1007.6 |
| 20260507094010 | 9 | 274 | 0.0 | 1.6 | 0.00 | 0.03 | 0.03 | 79 | 1007.7 |
| 20260507093508 | 9 | 277 | 0.0 | 0.0 | 0.00 | 0.03 | 0.03 | 79 | 1007.5 |
| 20260507093006 | 9 | 305 | 0.0 | 0.0 | 0.00 | 0.03 | 0.03 | 78 | 1007.8 |
| 20260507092502 | 9 | 281 | 0.0 | 0.0 | 0.00 | 0.03 | 0.03 | 78 | 1007.7 |
| 20260507091959 | 9 | 281 | 0.0 | 0.0 | 0.00 | 0.03 | 0.03 | 78 | 1007.9 |
| 20260507091455 | 9 | 226 | 1.6 | 3.2 | 0.00 | 0.03 | 0.03 | 79 | 1007.9 |
| 20260507090951 | 9 | 270 | 0.0 | 0.0 | 0.00 | 0.03 | 0.03 | 79 | 1007.6 |
| 20260507090447 | 9 | 272 | 0.0 | 0.0 | 0.00 | 0.03 | 0.03 | 78 | 1008.0 |
| 20260507085944 | 9 | 271 | 0.0 | 0.0 | 0.00 | 0.03 | 0.03 | 79 | 1007.6 |
| 20260507085442 | 9 | 241 | 1.6 | 3.2 | 0.00 | 0.03 | 0.03 | 79 | 1007.2 |
| 20260507084938 | 9 | 282 | 0.0 | 0.0 | 0.00 | 0.03 | 0.03 | 78 | 1007.0 |
| 20260507084435 | 10 | 273 | 0.0 | 1.6 | 0.00 | 0.03 | 0.03 | 79 | 1007.3 |
| 20260507083932 | 10 | 288 | 0.0 | 0.0 | 0.00 | 0.03 | 0.03 | 79 | 1007.4 |
| 20260507083429 | 10 | 273 | 0.0 | 0.0 | 0.00 | 0.03 | 0.03 | 79 | 1007.0 |
| 20260507082925 | 10 | 263 | 0.0 | 1.6 | 0.00 | 0.03 | 0.03 | 79 | 1007.2 |
| 20260507082421 | 10 | 266 | 1.6 | 3.2 | 0.00 | 0.03 | 0.03 | 80 | 1007.3 |
| 20260507081918 | 10 | 298 | 1.6 | 3.2 | 0.00 | 0.03 | 0.03 | 79 | 1007.1 |
| 20260507081414 | 10 | 280 | 1.6 | 3.2 | 0.13 | 0.03 | 0.03 | 80 | 1007.3 |
| 20260507080911 | 10 | 286 | 0.0 | 0.0 | 0.13 | 0.03 | 0.03 | 80 | 1007.6 |
| 20260507080407 | 10 | 259 | 0.0 | 1.6 | 0.00 | 0.00 | 0.00 | 78 | 1007.3 |
| 20260507075902 | 10 | 275 | 1.6 | 3.2 | 0.00 | 0.00 | 0.00 | 77 | 1007.2 |
| 20260507075359 | 10 | 270 | 1.6 | 1.6 | 0.00 | 0.00 | 0.00 | 76 | 1007.2 |
| 20260507074855 | 10 | 230 | 4.8 | 4.8 | 0.00 | 0.00 | 0.00 | 77 | 1007.0 |
| 20260507074353 | 10 | 246 | 1.6 | 3.2 | 0.00 | 0.00 | 0.00 | 77 | 1007.0 |
| 20260507073850 | 10 | 314 | 1.6 | 1.6 | 0.00 | 0.00 | 0.00 | 77 | 1007.0 |
| 20260507073346 | 10 | 275 | 1.6 | 1.6 | 0.00 | 0.00 | 0.00 | 77 | 1007.1 |
| 20260507072844 | 10 | 273 | 0.0 | 1.6 | 0.00 | 0.00 | 0.00 | 78 | 1006.7 |
| 20260507072341 | 10 | 313 | 1.6 | 1.6 | 0.00 | 0.00 | 0.00 | 77 | 1007.0 |
| 20260507071838 | 11 | 248 | 1.6 | 3.2 | 0.00 | 0.00 | 0.00 | 78 | 1006.7 |
| 20260507071335 | 11 | 288 | 1.6 | 3.2 | 0.00 | 0.00 | 0.00 | 79 | 1006.8 |
| 20260507070831 | 11 | 254 | 0.0 | 0.0 | 0.00 | 0.00 | 0.00 | 80 | 1006.8 |
| 20260507070329 | 11 | 325 | 0.0 | 0.0 | 0.00 | 0.00 | 0.00 | 82 | 1006.7 |
| 20260507065825 | 11 | 342 | 0.0 | 0.0 | 0.00 | 0.00 | 0.00 | 82 | 1006.8 |
| 20260507065322 | 11 | 287 | 0.0 | 1.6 | 0.00 | 0.00 | 0.00 | 82 | 1006.6 |
| 20260507064819 | 11 | 288 | 0.0 | 1.6 | 0.00 | 0.00 | 0.00 | 82 | 1006.6 |
| 20260507064318 | 11 | 280 | 0.0 | 0.0 | 0.00 | 0.00 | 0.00 | 82 | 1006.7 |
| 20260507063816 | 11 | 278 | 0.0 | 0.0 | 0.00 | 0.00 | 0.00 | 82 | 1006.5 |
| 20260507063312 | 11 | 303 | 1.6 | 3.2 | 0.00 | 0.00 | 0.00 | 82 | 1006.4 |
| 20260507062809 | 11 | 275 | 0.0 | 0.0 | 0.00 | 0.00 | 0.00 | 82 | 1006.2 |
| 20260507062306 | 11 | 275 | 0.0 | 0.0 | 0.00 | 0.00 | 0.00 | 82 | 1006.5 |
| 20260507061804 | 11 | 266 | 0.0 | 0.0 | 0.00 | 0.00 | 0.00 | 82 | 1006.5 |
| 20260507061302 | 11 | 277 | 0.0 | 0.0 | 0.00 | 0.00 | 0.00 | 82 | 1006.7 |
| 20260507060800 | 11 | 264 | 0.0 | 0.0 | 0.00 | 0.00 | 0.00 | 81 | 1006.2 |
| 20260507060256 | 11 | 274 | 0.0 | 0.0 | 0.00 | 0.00 | 0.00 | 81 | 1006.6 |
| 20260507055752 | 11 | 298 | 1.6 | 1.6 | 0.00 | 0.00 | 0.00 | 82 | 1006.5 |
| 20260507055248 | 11 | 281 | 0.0 | 0.0 | 0.00 | 0.00 | 0.00 | 83 | 1006.8 |
| 20260507054744 | 11 | 280 | 0.0 | 0.0 | 0.00 | 0.00 | 0.00 | 83 | 1006.9 |
| 20260507054241 | 11 | 263 | 1.6 | 4.8 | 0.00 | 0.00 | 0.00 | 83 | 1006.5 |
| 20260507053739 | 11 | 284 | 0.0 | 0.0 | 0.00 | 0.00 | 0.00 | 83 | 1006.5 |
| 20260507053236 | 11 | 241 | 1.6 | 3.2 | 0.00 | 0.00 | 0.00 | 83 | 1006.8 |
| 20260507052735 | 11 | 305 | 0.0 | 1.6 | 0.00 | 0.00 | 0.00 | 83 | 1006.8 |
| 20260507052231 | 11 | 294 | 0.0 | 0.0 | 0.00 | 0.00 | 0.00 | 82 | 1006.7 |
| 20260507051729 | 11 | 330 | 0.0 | 0.0 | 0.00 | 0.00 | 0.00 | 82 | 1006.8 |
| 20260507051225 | 11 | 158 | 1.6 | 8.0 | 0.00 | 0.00 | 0.00 | 83 | 1006.8 |
| 20260507050722 | 12 | 331 | 0.0 | 0.0 | 0.00 | 0.00 | 0.00 | 84 | 1006.8 |
| 20260507050219 | 12 | 277 | 0.0 | 0.0 | 0.00 | 0.00 | 0.00 | 84 | 1007.0 |
| 20260507045716 | 12 | 278 | 0.0 | 0.0 | 0.00 | 0.00 | 0.00 | 85 | 1006.8 |
| 20260507045212 | 12 | 287 | 0.0 | 0.0 | 0.00 | 0.00 | 0.00 | 85 | 1006.6 |
| 20260507044709 | 12 | 223 | 4.8 | 4.8 | 0.00 | 0.00 | 0.00 | 85 | 1006.4 |
| 20260507044206 | 12 | 289 | 0.0 | 0.0 | 0.00 | 0.00 | 0.00 | 85 | 1006.5 |
| 20260507043702 | 12 | 285 | 0.0 | 0.0 | 0.00 | 0.00 | 0.00 | 85 | 1006.5 |
| 20260507043159 | 12 | 286 | 0.0 | 1.6 | 0.00 | 0.00 | 0.00 | 86 | 1006.2 |
| 20260507042656 | 12 | 287 | 0.0 | 1.6 | 0.00 | 0.00 | 0.00 | 86 | 1006.6 |
| 20260507042150 | 13 | 291 | 0.0 | 0.0 | 0.00 | 0.00 | 0.00 | 87 | 1006.9 |
| 20260507041648 | 13 | 298 | 0.0 | 1.6 | 0.00 | 0.00 | 0.00 | 87 | 1006.6 |
| 20260507041144 | 13 | 282 | 0.0 | 0.0 | 0.00 | 0.00 | 0.00 | 90 | 1006.5 |
| 20260507040641 | 14 | 269 | 4.8 | 8.0 | 0.00 | 0.00 | 0.00 | 92 | 1006.4 |
| 20260507040138 | 15 | 250 | 0.0 | 1.6 | 0.00 | 0.64 | 0.64 | 93 | 1006.1 |
| 20260507035634 | 15 | 267 | 1.6 | 3.2 | 0.00 | 0.64 | 0.64 | 93 | 1006.1 |
| 20260507035130 | 15 | 278 | 0.0 | 0.0 | 0.00 | 0.64 | 0.64 | 94 | 1006.0 |
| 20260507034627 | 15 | 277 | 0.0 | 0.0 | 0.00 | 0.64 | 0.64 | 94 | 1006.1 |
| 20260507034124 | 15 | 277 | 0.0 | 0.0 | 0.18 | 0.64 | 0.64 | 94 | 1006.2 |
| 20260507033623 | 15 | 263 | 0.0 | 0.0 | 0.18 | 0.64 | 0.64 | 94 | 1005.9 |
| 20260507033119 | 15 | 269 | 0.0 | 0.0 | 0.00 | 0.61 | 0.61 | 94 | 1005.6 |
| 20260507032617 | 15 | 283 | 0.0 | 0.0 | 0.00 | 0.61 | 0.61 | 94 | 1005.4 |
| 20260507032113 | 15 | 268 | 0.0 | 0.0 | 0.00 | 0.61 | 0.61 | 94 | 1005.6 |
| 20260507031609 | 15 | 280 | 0.0 | 0.0 | 0.00 | 0.61 | 0.61 | 94 | 1005.6 |
| 20260507031106 | 15 | 277 | 0.0 | 0.0 | 0.00 | 0.61 | 0.61 | 94 | 1005.2 |
| 20260507030603 | 15 | 276 | 1.6 | 4.8 | 0.00 | 0.61 | 0.61 | 94 | 1005.4 |
| 20260507030101 | 15 | 259 | 0.0 | 1.6 | 0.00 | 0.61 | 0.61 | 94 | 1005.5 |
| 20260507025558 | 15 | 280 | 0.0 | 0.0 | 0.00 | 0.61 | 0.61 | 94 | 1005.3 |
| 20260507025055 | 15 | 280 | 0.0 | 0.0 | 0.00 | 0.61 | 0.61 | 94 | 1005.5 |
| 20260507024553 | 15 | 275 | 0.0 | 0.0 | 0.00 | 0.61 | 0.61 | 94 | 1005.5 |
| 20260507024049 | 15 | 286 | 0.0 | 0.0 | 0.00 | 0.61 | 0.61 | 94 | 1005.5 |
| 20260507023545 | 15 | 273 | 0.0 | 0.0 | 0.00 | 0.61 | 0.61 | 94 | 1005.4 |
| 20260507023043 | 15 | 272 | 0.0 | 0.0 | 0.00 | 0.61 | 0.61 | 94 | 1005.5 |
| 20260507022539 | 15 | 282 | 0.0 | 0.0 | 0.00 | 0.61 | 0.61 | 94 | 1005.3 |
| 20260507022035 | 15 | 272 | 0.0 | 0.0 | 0.00 | 0.61 | 0.61 | 94 | 1005.2 |
| 20260507021531 | 15 | 283 | 0.0 | 0.0 | 0.00 | 0.61 | 0.61 | 94 | 1005.3 |
| 20260507021028 | 15 | 285 | 0.0 | 0.0 | 0.00 | 0.61 | 0.61 | 94 | 1005.3 |
| 20260507020525 | 15 | 248 | 0.0 | 0.0 | 0.00 | 0.61 | 0.61 | 94 | 1005.5 |
| 20260507020021 | 15 | 283 | 0.0 | 0.0 | 0.00 | 0.61 | 0.61 | 94 | 1005.5 |
| 20260507015520 | 15 | 279 | 0.0 | 0.0 | 0.00 | 0.61 | 0.61 | 94 | 1005.7 |
| 20260507015017 | 15 | 288 | 0.0 | 0.0 | 0.00 | 0.61 | 0.61 | 94 | 1005.8 |
| 20260507014513 | 15 | 282 | 0.0 | 0.0 | 0.00 | 0.61 | 0.61 | 94 | 1005.6 |
| 20260507014009 | 15 | 279 | 0.0 | 0.0 | 0.00 | 0.61 | 0.61 | 94 | 1005.5 |
| 20260507013506 | 15 | 278 | 0.0 | 0.0 | 0.00 | 0.61 | 0.61 | 94 | 1005.6 |
| 20260507013004 | 15 | 266 | 1.6 | 1.6 | 0.00 | 0.61 | 0.61 | 94 | 1005.7 |
| 20260507012500 | 15 | 237 | 0.0 | 0.0 | 0.00 | 0.61 | 0.61 | 94 | 1005.6 |
| 20260507011957 | 15 | 277 | 1.6 | 3.2 | 0.00 | 0.61 | 0.61 | 94 | 1005.7 |
| 20260507011454 | 15 | 283 | 0.0 | 0.0 | 0.00 | 0.61 | 0.61 | 94 | 1005.9 |
| 20260507010950 | 15 | 273 | 1.6 | 3.2 | 0.00 | 0.61 | 0.61 | 94 | 1005.7 |
| 20260507010444 | 15 | 281 | 0.0 | 0.0 | 0.00 | 0.61 | 0.61 | 94 | 1005.8 |
| 20260507005941 | 15 | 272 | 0.0 | 0.0 | 0.00 | 0.61 | 0.61 | 94 | 1005.8 |
| 20260507005439 | 15 | 261 | 0.0 | 1.6 | 0.00 | 0.61 | 0.61 | 93 | 1005.7 |
| 20260507004935 | 15 | 280 | 0.0 | 0.0 | 0.00 | 0.61 | 0.61 | 93 | 1005.8 |
| 20260507004432 | 15 | 278 | 0.0 | 0.0 | 0.00 | 0.61 | 0.61 | 93 | 1005.7 |
| 20260507003929 | 15 | 278 | 0.0 | 0.0 | 0.00 | 0.61 | 0.61 | 93 | 1005.6 |
| 20260507003424 | 15 | 288 | 0.0 | 0.0 | 0.00 | 0.61 | 0.61 | 93 | 1005.9 |
| 20260507002920 | 15 | 231 | 1.6 | 3.2 | 0.00 | 0.61 | 0.61 | 93 | 1005.8 |
| 20260507002416 | 15 | 252 | 0.0 | 1.6 | 0.00 | 0.61 | 0.61 | 93 | 1005.9 |
| 20260507001913 | 15 | 279 | 0.0 | 0.0 | 0.00 | 0.61 | 0.61 | 92 | 1005.6 |
| 20260507001410 | 15 | 265 | 0.0 | 0.0 | 0.00 | 0.61 | 0.61 | 92 | 1005.6 |
| 20260507000908 | 15 | 278 | 0.0 | 0.0 | 0.00 | 0.61 | 0.61 | 91 | 1005.6 |
| 20260507000405 | 15 | 270 | 0.0 | 1.6 | 0.00 | 0.61 | 0.61 | 91 | 1005.6 |
| 20260506235859 | 15 | 277 | 0.0 | 0.0 | 0.00 | 0.61 | 0.61 | 91 | 1005.6 |
| 20260506235356 | 15 | 279 | 0.0 | 0.0 | 0.13 | 0.61 | 0.61 | 90 | 1005.4 |
| 20260506234852 | 15 | 278 | 0.0 | 0.0 | 0.30 | 0.61 | 0.61 | 90 | 1005.4 |
| 20260506234350 | 15 | 277 | 0.0 | 0.0 | 0.36 | 0.58 | 0.58 | 89 | 1005.5 |
| 20260506233847 | 15 | 235 | 0.0 | 0.0 | 0.48 | 0.56 | 0.56 | 89 | 1005.4 |
| 20260506233343 | 15 | 278 | 0.0 | 0.0 | 0.61 | 0.53 | 0.53 | 88 | 1005.6 |
| 20260506232840 | 15 | 288 | 0.0 | 0.0 | 0.18 | 0.46 | 0.46 | 88 | 1005.6 |
| 20260506232336 | 15 | 274 | 0.0 | 1.6 | 0.00 | 0.43 | 0.43 | 88 | 1005.5 |
| 20260506231832 | 15 | 288 | 1.6 | 4.8 | 0.00 | 0.43 | 0.43 | 88 | 1005.7 |
| 20260506231330 | 15 | 267 | 0.0 | 1.6 | 0.13 | 0.43 | 0.43 | 88 | 1005.8 |
| 20260506230827 | 15 | 178 | 3.2 | 4.8 | 0.13 | 0.43 | 0.43 | 87 | 1005.9 |
| 20260506230324 | 15 | 271 | 0.0 | 0.0 | 0.00 | 0.41 | 0.41 | 87 | 1005.7 |
| 20260506225820 | 15 | 275 | 0.0 | 0.0 | 0.00 | 0.41 | 0.41 | 87 | 1005.9 |
| 20260506225318 | 15 | 253 | 3.2 | 4.8 | 0.00 | 0.41 | 0.41 | 87 | 1005.9 |
| 20260506224814 | 15 | 290 | 0.0 | 1.6 | 0.18 | 0.41 | 0.41 | 87 | 1005.7 |
| 20260506224312 | 15 | 285 | 0.0 | 1.6 | 0.30 | 0.41 | 0.41 | 86 | 1005.7 |